Location: Poughquag
(41.6090°N, 73.6820°W)
Time: 10:21:11
(UTC-05:00)

Vanguard 1 - Pass Details

Date: 03 December 2023
Orbit: 653 x 3826 km, 34.3° (Epoch: 25 February)

Event Time Altitude Azimuth Distance (km) Brightness Sun altitude
Rises 15:32:32 0° 194° (SSW) 5,065 14.7 7.3°
Reaches altitude 10° 15:36:12 10° 182° (S) 4,504 14.1 6.8°
Maximum altitude 15:46:31 26° 131° (SE) 4,347 13.3 5.2°
Drops below altitude 10° 16:01:17 10° 85° (E) 6,600 13.7 2.9°
Sets 16:08:15 0° 75° (ENE) 7,882 14.0 1.8°
